Weather Roundup
Issued by NWS

Home | Current Version | Previous Version | Graphics & Text | Print | Product List | Glossary Off
Versions: 1 2 3 4 5 6 7 8 9 10 11 12 13 14 15 16 17 18 19 20 21 22 23 24 25 26 27 28 29 30 31 32 33 34 35 36 37 38 39 40 41 42 43 44 45 46 47 48 49 50

000
NZUS93 KARX 260710
HRRWXR

CURRENT HOURLY OBSERVATIONS ACROSS
MUCH OF THE UPPER MISSISSIPPI VALLEY
NATIONAL WEATHER SERVICE LA CROSSE WI
200 AM CDT FRI MAY 26 2017


...SOUTHEAST MINNESOTA...


CITY           SKY/WX    TMP DP  RH WIND       PRES   REMARKS
ROCHESTER      CLOUDY    57  55  93 SE8       29.74F
ROCHESTER/MAYO CLOUDY    59  57  93 SE7       29.73S
WINONA         CLOUDY    59  55  88 SE5       29.74F
AUSTIN         MOCLDY    59  52  77 S3        29.72S
ALBERT LEA     PTCLDY    61  54  77 S8        29.71S
DODGE CENTER   PTCLDY    57  54  88 SE7       29.72R
PRESTON        CLOUDY    57  53  84 S7        29.75S
OWATONNA       CLOUDY    61  52  72 SE6       29.70S
FARIBAULT      CLOUDY    61  54  77 SE3       29.70F
$$

...ELSEWHERE IN MINNESOTA...


CITY           SKY/WX    TMP DP  RH WIND       PRES   REMARKS
MINNEAPOLIS    CLOUDY    62  53  72 SE6       29.69S
INTNL FALLS    CLOUDY    58  46  64 SE8       29.68R
DULUTH         LGT RAIN  52  45  77 SE5       29.74R
RED WING       CLOUDY    61  54  77 CALM      29.71S
REDWOOD FALLS  CLOUDY    56  50  80 S8        29.65S
MANKATO        CLOUDY    58  51  78 SE9       29.69S
WORTHINGTON    CLOUDY    60  52  74 S16       29.67F
FAIRMONT       CLOUDY    59  51  75 S10       29.70R
$$

...SOUTHWEST WISCONSIN...


CITY           SKY/WX    TMP DP  RH WIND       PRES   REMARKS
LA CROSSE      CLOUDY    61  58  90 E5        29.75F
PRAIRIE DU CHI CLOUDY    57  53  85 SE5       29.76S
BOSCOBEL       CLOUDY    56  54  93 E3        29.77F FOG
LONE ROCK      CLOUDY    57  55  93 CALM      29.78S FOG
PLATTEVILLE    CLOUDY    59  56  89 S5        29.80S
FORT MC COY    LGT RAIN  54  54 100 CALM      29.79S
CAMP DOUGLAS   LGT RAIN  55  55 100 CALM      29.78R
MAUSTON-NEW LI LGT RAIN  60  55  82 SW3       29.79R
VIROQUA        PTSUNNY   58  55  87 MISG      29.78S
WIS DELLS      CLOUDY    57  52  81 SW5       29.80R
$$

...ELSEWHERE IN WISCONSIN...


CITY           SKY/WX    TMP DP  RH WIND       PRES   REMARKS
MILWAUKEE      PTCLDY    53  51  93 CALM      29.79R
MADISON        CLOUDY    58  52  80 SE5       29.79R
GREEN BAY      CLEAR     51  51 100 CALM      29.78F
EAU CLAIRE     LGT RAIN  60  55  83 S8        29.75R
BLACK RVR FLS  LGT RAIN  56  56 100 CALM      29.78R
MEDFORD        CLOUDY    56  51  85 SE6       29.78R
WAUSAU         CLOUDY    58  51  78 SE6       29.78R
WIS RAPIDS     MOCLDY    52  50  93 SE3       29.80R
MARSHFIELD     CLOUDY    56  51  84 SW6       29.77R
RICE LAKE      CLOUDY    58  56  92 E3        29.76S
$$

...NORTHEAST IOWA...


CITY           SKY/WX    TMP DP  RH WIND       PRES   REMARKS
WATERLOO       PTCLDY    56  51  84 SE3       29.75R
DUBUQUE        CLOUDY    57  53  86 S3        29.78S
DECORAH        CLOUDY    59  54  82 S5        29.74S
MASON CITY     CLEAR     56  49  77 S9        29.74R
CHARLES CITY   CLOUDY    59  52  77 SE8       29.75R
OELWEIN        PTCLDY    57  55  94 SE8       29.76S
$$

...ELSEWHERE IN IOWA...


CITY           SKY/WX    TMP DP  RH WIND       PRES   REMARKS
DES MOINES     CLOUDY    63  52  67 E5        29.70F
IOWA CITY      CLOUDY    62  53  72 CALM      29.76F
FORT DODGE     CLEAR     61  52  72 SE7       29.71F
MARSHALLTOWN   MOCLDY    56  51  84 E7        29.73R
CEDAR RAPIDS   CLOUDY    57  53  86 E5        29.75R
$$

...NORTHERN ILLINOIS...


CITY           SKY/WX    TMP DP  RH WIND       PRES   REMARKS
CHICAGO-OHARE  PTCLDY    53  49  86 CALM      29.78R
CHICAGO-MIDWAY PTCLDY    56  51  84 S5        29.79R
MOLINE         MOCLDY    59  54  83 E6        29.76S
ROCKFORD       CLOUDY    57  53  86 CALM      29.81R
PEORIA         CLOUDY    58  56  93 CALM      29.80R
$$

NOTE: "FAIR" INDICATES FEW OR NO CLOUDS BELOW 12,000 FEET WITH NO
SIGNIFICANT WEATHER AND/OR OBSTRUCTIONS TO VISIBILITY. WIND
SPEEDS ARE IN MILES-PER-HOUR.




USA.gov is the U.S. government's official web portal to all federal, state and local government web resources and services.